Location: Audrecelles
(50.8240°N, 1.5923°E)
Time: 02:12:08
(UTC+00:00)

Cosmos 44 - Pass Details

Date: 22 October 2025
Orbit: 576 x 774 km, 65.1° (Epoch: 13 November)

Event Time Altitude Azimuth Distance (km) Brightness Sun altitude
Exits shadow 01:49:25 12° 62° (ENE) 2,079 6.3 -42.1°
Drops below altitude 10° 01:50:03 10° 68° (ENE) 2,246 6.5 -42.0°
Sets 01:53:06 0° 85° (E) 3,198 7.3 -41.7°
